Weather reports worldwide

Advertisment
Andrewsfield, United Kingdom (3684): temperature & dewpoint: 04.12.2018 09:00:00 - 10.12.2018 09:00:00 (GMT)Andrewsfield, United Kingdom (3684): temperature -20cm & temperature -100cm: 04.12.2018 09:00:00 - 10.12.2018 09:00:00 (GMT)Andrewsfield, United Kingdom (3684): wind speed & gusts: 04.12.2018 09:00:00 - 10.12.2018 09:00:00 (GMT)Andrewsfield, United Kingdom (3684): wind direction: 04.12.2018 09:00:00 - 10.12.2018 09:00:00 (GMT)Andrewsfield, United Kingdom (3684): reduced air pressure: 04.12.2018 09:00:00 - 10.12.2018 09:00:00 (GMT)Andrewsfield, United Kingdom (3684): visibility: 04.12.2018 09:00:00 - 10.12.2018 09:00:00 (GMT)Andrewsfield, United Kingdom (3684): precipitation: 04.12.2018 09:00:00 - 10.12.2018 09:00:00 (GMT)
Date & Time tt [°C] td [°C] tt -20cm [°C] tt -100cm [°C] ff [km/h] ff [kn] fx [km/h] fx [kn] dd ppp [hPa] vv [km] rr [mm]
10.12.2018 09:00:00 6,7 4,7 8,2 9,9 15 8 - - WNW 1025,8 45 0,0
10.12.2018 08:00:00 6,3 4,6 - - 16 9 - - WNW 1025,1 40 0,0
10.12.2018 07:00:00 5,3 4,1 - - 15 8 - - WNW 1024,7 45 0,0
10.12.2018 06:00:00 5,2 4,1 - - 15 8 - - WNW 1024,1 50 0,0
10.12.2018 05:00:00 5,0 3,9 - - 13 7 - - WNW 1023,8 50 0,0
10.12.2018 04:00:00 5,2 3,8 - - 16 9 - - W 1023,5 45 0,0
10.12.2018 03:00:00 5,5 3,7 - - 15 8 - - W 1023,0 50 0,0
10.12.2018 02:00:00 5,9 4,0 - - 13 7 - - WNW 1022,2 50 0,0
10.12.2018 01:00:00 5,6 3,7 - - 16 9 - - W 1021,9 45 0,0
10.12.2018 00:00:00 5,9 3,8 - - 16 9 - - W 1021,5 40 0,0
09.12.2018 23:00:00 6,0 3,5 - - 13 7 - - WNW 1020,7 40 0,0
09.12.2018 22:00:00 6,4 3,1 - - 16 9 - - WNW 1020,3 50 0,0
09.12.2018 21:00:00 6,8 3,6 - - 18 10 - - WNW 1019,3 45 0,0
09.12.2018 20:00:00 7,2 3,3 - - 22 12 - - WNW 1018,8 35 0,0
09.12.2018 19:00:00 7,3 2,9 - - 22 12 - - WNW 1017,5 45 0,0
09.12.2018 18:00:00 7,0 2,9 - - 18 10 - - WNW 1016,3 50 0,0
09.12.2018 17:00:00 7,7 3,7 - - 18 10 - - WNW 1015,3 45 0,0
09.12.2018 16:00:00 8,4 4,3 - - 15 8 - - WNW 1013,7 50 0,0
09.12.2018 15:00:00 8,5 4,4 - - 16 9 - - NW 1011,9 50 0,0
09.12.2018 14:00:00 8,4 4,2 - - 16 9 - - NW 1010,5 50 0,0
09.12.2018 13:00:00 8,8 3,7 - - 24 13 46 25 NW 1009,0 50 0,0
09.12.2018 12:00:00 8,9 5,2 - - 24 13 - - NW 1007,7 45 0,0
09.12.2018 11:00:00 8,6 6,0 - - 22 12 - - NW 1006,0 45 0,0
09.12.2018 10:00:00 8,6 6,3 - - 26 14 46 25 WNW 1003,9 21 0,0
09.12.2018 09:00:00 8,4 5,9 8,7 10,0 24 13 46 25 WNW 1002,5 50 0,0
09.12.2018 08:00:00 8,4 6,0 - - 28 15 - - WNW 1000,8 45 0,2
09.12.2018 07:00:00 8,1 6,2 - - 28 15 52 28 W 999,3 24 0,4
09.12.2018 06:00:00 8,3 5,6 - - 37 20 52 28 W 998,4 9 0,2
09.12.2018 05:00:00 8,2 5,2 - - 31 17 48 26 W 998,1 13 0,0
09.12.2018 04:00:00 8,5 4,6 - - 35 19 54 29 W 998,0 16 0,0
09.12.2018 03:00:00 8,2 4,3 - - 31 17 50 27 W 998,0 24 0,0
09.12.2018 02:00:00 8,3 4,4 - - 31 17 54 29 W 997,7 26 0,0
09.12.2018 01:00:00 8,4 4,6 - - 37 20 54 29 W 997,1 27 0,0
09.12.2018 00:00:00 8,4 4,8 - - 35 19 59 32 W 997,1 30 0,0
08.12.2018 23:00:00 8,3 4,6 - - 39 21 59 32 W 996,4 30 0,0
08.12.2018 22:00:00 8,3 4,6 - - 39 21 59 32 W 996,2 24 0,0
08.12.2018 21:00:00 8,9 4,6 - - 39 21 57 31 W 996,1 20 0,0
08.12.2018 20:00:00 10,0 4,9 - - 37 20 54 29 W 996,0 14 0,0
08.12.2018 19:00:00 9,9 6,3 - - 31 17 63 34 WSW 995,6 10 0,0
08.12.2018 18:00:00 10,5 6,2 - - 39 21 59 32 W 995,8 11 0,0
08.12.2018 17:00:00 10,1 8,0 - - 29 16 52 28 SW 996,2 26 0,0
08.12.2018 16:00:00 10,3 8,5 - - 37 20 54 29 WSW 997,2 45 0,0
08.12.2018 15:00:00 10,1 8,3 - - 28 15 48 26 SW 998,3 5 0,0
08.12.2018 14:00:00 9,8 7,5 - - 31 17 57 31 SW 1000,2 16 0,0
08.12.2018 13:00:00 10,2 6,1 - - 42 23 65 35 WSW 1001,1 17 0,0
08.12.2018 12:00:00 10,1 4,9 - - 46 25 65 35 W 1002,0 21 0,0
08.12.2018 11:00:00 9,3 4,6 - - 39 21 59 32 W 1002,9 29 0,0
08.12.2018 10:00:00 8,6 4,3 - - 39 21 59 32 W 1003,4 30 0,0
08.12.2018 09:00:00 7,8 3,8 8,9 9,9 35 19 50 27 W 1003,5 35 0,0
08.12.2018 08:00:00 7,9 3,6 - - 35 19 54 29 W 1003,0 30 0,0
08.12.2018 07:00:00 8,5 4,0 - - 37 20 59 32 W 1002,5 35 0,0
08.12.2018 06:00:00 8,6 4,3 - - 37 20 55 30 W 1002,0 22 0,0
08.12.2018 05:00:00 8,0 4,9 - - 37 20 52 28 W 1001,7 17 0,0
08.12.2018 04:00:00 7,1 4,8 - - 42 23 57 31 WSW 1001,6 16 0,0
08.12.2018 03:00:00 7,3 4,8 - - 42 23 63 34 WSW 1001,9 11 0,0
08.12.2018 02:00:00 6,7 4,3 - - 34 18 50 27 WSW 1002,1 20 0,0
08.12.2018 01:00:00 6,3 3,8 - - 29 16 54 29 SW 1002,6 26 0,0
08.12.2018 00:00:00 6,0 3,7 - - 39 21 52 28 WSW 1003,0 18 0,0
07.12.2018 23:00:00 5,8 3,6 - - 35 19 50 27 WSW 1003,1 27 0,0
07.12.2018 22:00:00 5,4 2,8 - - 26 14 - - WSW 1003,5 23 0,0
07.12.2018 21:00:00 5,5 2,7 - - 28 15 - - WSW 1003,4 29 0,0
07.12.2018 20:00:00 5,7 2,5 - - 31 17 46 25 WSW 1003,1 20 0,0
07.12.2018 19:00:00 5,8 2,4 - - 28 15 - - WSW 1002,6 27 0,0
07.12.2018 18:00:00 4,8 2,8 - - 18 10 - - WSW 1002,2 45 0,2
07.12.2018 17:00:00 6,0 1,9 - - 26 14 57 31 W 1001,4 50 0,0
07.12.2018 16:00:00 7,5 2,8 - - 31 17 - - W 1000,6 23 0,0
07.12.2018 15:00:00 8,8 3,1 - - 26 14 46 25 W 999,6 26 0,0
07.12.2018 14:00:00 9,4 4,2 - - 26 14 52 28 WNW 998,8 21 0,0
07.12.2018 13:00:00 9,5 5,6 - - 28 15 46 25 W 998,1 19 0,0
07.12.2018 12:00:00 9,3 6,7 - - 26 14 46 25 WNW 997,7 22 1,4
07.12.2018 11:00:00 11,3 9,7 - - 39 21 57 31 WSW 997,6 21 1,6
07.12.2018 10:00:00 11,5 10,8 - - 28 15 - - SSW 998,1 5 1,0
07.12.2018 09:00:00 11,9 11,0 9,2 9,9 31 17 50 27 SW 999,2 21 0,8
07.12.2018 08:00:00 12,1 11,1 - - 31 17 55 30 SW 1000,6 8 0,2
07.12.2018 07:00:00 12,4 11,0 - - 29 16 59 32 SW 1001,5 28 0,0
07.12.2018 06:00:00 12,8 11,1 - - 34 18 50 27 SW 1002,9 35 0,0
07.12.2018 05:00:00 12,6 11,4 - - 29 16 46 25 SW 1004,3 30 0,2
07.12.2018 04:00:00 12,5 11,8 - - 26 14 - - SW 1005,8 17 0,0
07.12.2018 03:00:00 12,4 12,1 - - 24 13 - - SW 1007,1 10 0,2
07.12.2018 02:00:00 12,5 12,0 - - 26 14 - - SW 1008,2 8 0,0
07.12.2018 01:00:00 12,6 11,7 - - 26 14 - - SW 1009,1 30 0,0
07.12.2018 00:00:00 12,4 11,6 - - 22 12 - - SW 1010,0 35 0,0
06.12.2018 23:00:00 12,4 11,5 - - 21 11 - - SW 1011,0 25 0,0
06.12.2018 22:00:00 12,2 11,6 - - 22 12 - - SW 1011,7 14 0,0
06.12.2018 21:00:00 12,0 11,4 - - 22 12 - - WSW 1012,1 6 0,0
06.12.2018 20:00:00 12,1 11,2 - - 24 13 - - WSW 1012,4 13 0,2
06.12.2018 19:00:00 12,0 11,1 - - 24 13 - - WSW 1012,6 9 0,2
06.12.2018 18:00:00 11,9 10,8 - - 24 13 - - SW 1012,5 18 0,0
06.12.2018 17:00:00 12,0 10,0 - - 28 15 - - SW 1012,1 50 0,0
06.12.2018 16:00:00 11,9 9,7 - - 28 15 - - WSW 1012,6 50 0,0
06.12.2018 15:00:00 12,0 9,8 - - 26 14 - - SW 1012,5 50 0,0
06.12.2018 14:00:00 11,7 10,3 - - 28 15 - - WSW 1012,8 10 0,0
06.12.2018 13:00:00 11,9 10,3 - - 29 16 - - WSW 1013,2 50 0,0
06.12.2018 12:00:00 11,5 10,1 - - 22 12 - - SW 1013,5 35 0,0
06.12.2018 11:00:00 11,2 9,9 - - 24 13 - - WSW 1014,0 45 0,0
06.12.2018 10:00:00 10,7 9,6 - - 24 13 - - SW 1014,2 35 0,0
06.12.2018 09:00:00 10,5 9,7 8,7 9,9 21 11 - - SW 1013,7 14 0,0
06.12.2018 08:00:00 10,1 9,6 - - 13 7 - - SW 1013,6 12 0,0
06.12.2018 07:00:00 9,7 9,2 - - 13 7 - - SW 1013,5 17 0,0
06.12.2018 06:00:00 10,0 9,2 - - 22 12 - - WSW 1013,1 3,8 0,0
06.12.2018 05:00:00 10,6 9,7 - - 13 7 - - SW 1012,6 29 0,0
06.12.2018 04:00:00 11,0 10,2 - - 16 9 - - WSW 1012,6 26 0,0
06.12.2018 03:00:00 11,1 10,4 - - 18 10 - - W 1012,1 22 0,0
06.12.2018 02:00:00 11,1 10,5 - - 15 8 - - WSW 1011,3 21 0,0
06.12.2018 01:00:00 11,3 10,7 - - 13 7 - - WSW 1010,5 18 0,0
06.12.2018 00:00:00 11,4 10,9 - - 18 10 - - W 1010,1 10 0,0
05.12.2018 23:00:00 11,3 11,1 - - 13 7 - - WSW 1009,8 9 0,0
05.12.2018 22:00:00 11,0 10,9 - - 9 5 - - SSW 1009,5 5 0,0
05.12.2018 21:00:00 11,0 10,8 - - 9 5 - - SSW 1009,3 5 0,0
05.12.2018 20:00:00 11,2 11,0 - - 16 9 - - SW 1009,2 6 0,4
05.12.2018 19:00:00 11,2 10,9 - - 15 8 - - SSW 1008,9 8 0,4
05.12.2018 18:00:00 10,9 10,6 - - 11 6 - - S 1009,0 6 1,0
05.12.2018 17:00:00 11,1 10,6 - - 9 5 - - S 1009,3 5 0,0
05.12.2018 16:00:00 11,3 10,7 - - 9 5 - - S 1009,9 10 0,0
05.12.2018 15:00:00 11,6 10,8 - - 13 7 - - S 1010,8 12 0,0
05.12.2018 14:00:00 11,6 11,2 - - 13 7 - - S 1011,4 14 0,0
05.12.2018 13:00:00 11,6 11,6 - - 11 6 - - S 1012,5 7 0,0
05.12.2018 12:00:00 11,0 11,0 - - 13 7 - - S 1013,7 7 0,2
05.12.2018 11:00:00 9,8 9,8 - - 9 5 - - S 1015,0 1,5 0,0
05.12.2018 10:00:00 8,6 8,6 - - 11 6 - - SSE 1015,5 0,8 0,0
05.12.2018 09:00:00 7,8 7,8 8,0 10,0 22 12 - - SE 1016,1 1,7 0,4
05.12.2018 08:00:00 7,2 7,2 - - 22 12 - - SE 1016,6 3,9 0,6
05.12.2018 07:00:00 6,4 6,4 - - 24 13 - - SE 1017,8 2,6 0,4
05.12.2018 06:00:00 5,7 5,6 - - 26 14 - - SE 1018,5 3,8 0,0
05.12.2018 05:00:00 5,2 4,9 - - 24 13 - - SE 1019,6 3,1 0,8
05.12.2018 04:00:00 5,3 4,6 - - 13 7 - - ESE 1020,4 12 0,6
05.12.2018 03:00:00 5,0 4,6 - - 8 4 - - ESE 1021,3 11 0,4
05.12.2018 02:00:00 5,0 4,4 - - 5 3 - - ESE 1021,7 9 0,2
05.12.2018 01:00:00 4,7 4,1 - - 4 2 - - ESE 1022,3 10 0,2
05.12.2018 00:00:00 5,0 4,0 - - 5 3 - - SE 1023,2 10 0,0
04.12.2018 23:00:00 5,5 4,2 - - 8 4 - - SSW 1023,3 13 0,0
04.12.2018 22:00:00 5,0 4,3 - - 5 3 - - SSE 1023,5 13 0,0
04.12.2018 21:00:00 4,4 3,6 - - 5 3 - - SE 1023,4 8 0,0
04.12.2018 20:00:00 4,7 3,8 - - 5 3 - - SSE 1023,7 10 0,0
04.12.2018 19:00:00 5,0 3,9 - - 5 3 - - SSE 1023,8 10 0,0
04.12.2018 18:00:00 4,8 3,6 - - 2 1 - - S 1023,9 13 0,0
04.12.2018 17:00:00 4,6 3,8 - - 4 2 - - SSE 1023,5 14 0,0
04.12.2018 16:00:00 5,0 3,7 - - 2 1 - - S 1023,4 16 0,0
04.12.2018 15:00:00 5,5 3,8 - - 4 2 - - SSE 1022,7 16 0,0
04.12.2018 14:00:00 5,9 3,6 - - 0 0 - - N 1022,8 22 0,0
04.12.2018 13:00:00 6,0 3,8 - - 4 2 - - WSW 1022,5 23 0,0
04.12.2018 12:00:00 5,7 3,3 - - 4 2 - - NNW 1022,6 15 0,0
04.12.2018 11:00:00 5,0 3,2 - - 8 4 - - WNW 1022,4 30 0,0
04.12.2018 10:00:00 3,3 2,2 - - 5 3 - - WSW 1021,8 17 0,0
04.12.2018 09:00:00 1,2 0,7 8,9 9,9 5 3 - - W 1021,1 11 0,0

tt = temperature
td = dewpoint
tt -20cm = temperature -20cm
tt -100cm = temperature -100cm
ff = wind speed
fx = gusts
dd = wind direction
ppp = reduced air pressure
vv = visibility
rr = precipitation

Next stations